Iron Mountain, MI

4:13 AM CST on January 16, 2018 (GMT -0600)
Ford

Weather History for KIMT - February, 2013

Change the Weather History Date:

Tuesday, February 26, 2013

  Actual Average Record
Temperature  
Mean Temperature 29 °F -  
Max Temperature 33 °F 33 °F 56 °F (1976)
Min Temperature 25 °F 8 °F -22 °F (1963)
Degree Days  
Heating Degree Days 36    
Moisture  
Dew Point 24 °F    
Average Humidity 77    
Maximum Humidity 89    
Minimum Humidity 66    
Precipitation  
Precipitation 0.00 in - - ()
Sea Level Pressure  
Sea Level Pressure 30.00 in    
Wind  
Wind Speed 4 mph (NE)    
Max Wind Speed 14 mph    
Max Gust Speed 21 mph    
Visibility 10 miles    
Events      
Averages and records for this station are not official NWS values.
T = Trace of Precipitation, MM = Missing Value Source: NWS Daily Summary

Daily Weather History Graph

Daily Weather History Graph

Search for Another Location

Airport or City:

Trip Planner

Search our weather history database for the weather conditions in past years. The results will help you decide how hot, cold, wet, or windy it might be!

Date:

Astronomy

Feb. 26, 2013 Rise Set
Actual Time 6:35 AM CST 5:35 PM CST
Civil Twilight 6:05 AM CST 6:05 PM CST
Nautical Twilight 5:31 AM CST 6:39 PM CST
Astronomical Twilight 4:57 AM CST 7:14 PM CST
Moon 6:58 PM CST (2/26) 6:33 AM CST (2/26)
Length of Visible Light 11h 59m
Length of Day
10h 59m
Full, 99% of the Moon is Illuminated
Feb 26
Full
Mar 4
Last Quarter
Mar 11
New
Mar 19
First Quarter
Mar 27
Full

Hourly Weather History & Observations

Time (CST) Temp. Windchill Dew Point Humidity Pressure Visibility Wind Dir Wind Speed Gust Speed Precip Events Conditions
12:54 AM 30.0 °F - 23.0 °F 75% 30.11 in 10.0 mi Calm Calm - N/A   Overcast
1:54 AM 28.9 °F - 24.1 °F 82% 30.11 in 10.0 mi Calm Calm - N/A   Overcast
2:54 AM 28.9 °F - 24.1 °F 82% 30.10 in 10.0 mi Calm Calm - N/A   Overcast
3:54 AM 28.0 °F - 23.0 °F 81% 30.09 in 10.0 mi Calm Calm - N/A   Overcast
4:54 AM 25.0 °F - 21.9 °F 88% 30.07 in 9.0 mi Calm Calm - N/A   Overcast
5:54 AM 27.0 °F - 24.1 °F 89% 30.08 in 10.0 mi Calm Calm - N/A   Overcast
6:28 AM 28.4 °F 23.3 °F 24.8 °F 86% 30.03 in 10.0 mi East 4.6 mph - N/A   Overcast
6:54 AM 28.9 °F - 25.0 °F 85% 30.08 in 9.0 mi Calm Calm - N/A   Overcast
7:24 AM 30.2 °F 24.3 °F 26.6 °F 86% 30.02 in 9.0 mi ENE 5.8 mph - N/A   Overcast
7:54 AM 30.0 °F 25.2 °F 27.0 °F 88% 30.07 in 10.0 mi NE 4.6 mph - N/A   Overcast
8:16 AM 30.2 °F 25.4 °F 26.6 °F 86% 30.02 in 9.0 mi ENE 4.6 mph - N/A   Overcast
8:32 AM 30.2 °F 22.6 °F 26.6 °F 86% 30.02 in 10.0 mi East 8.1 mph - N/A   Overcast
8:54 AM 30.9 °F 26.2 °F 26.1 °F 82% 30.07 in 10.0 mi East 4.6 mph - N/A   Overcast
9:54 AM 32.0 °F 25.6 °F 25.0 °F 75% 30.06 in 10.0 mi ENE 6.9 mph - N/A   Overcast
10:54 AM 32.0 °F 26.4 °F 24.1 °F 73% 30.05 in 10.0 mi Variable 5.8 mph - N/A   Overcast
11:54 AM 33.1 °F 24.4 °F 23.0 °F 66% 30.02 in 10.0 mi East 11.5 mph 19.6 mph N/A   Overcast
12:54 PM 33.1 °F 25.5 °F 23.0 °F 66% 29.99 in 10.0 mi ENE 9.2 mph - N/A   Overcast
1:54 PM 33.1 °F 25.5 °F 23.0 °F 66% 29.96 in 10.0 mi ENE 9.2 mph - N/A   Overcast
2:54 PM 33.1 °F 26.9 °F 23.0 °F 66% 29.94 in 10.0 mi NE 6.9 mph 18.4 mph N/A   Overcast
3:54 PM 33.1 °F 24.4 °F 23.0 °F 66% 29.94 in 10.0 mi NNE 11.5 mph - N/A   Overcast
4:54 PM 32.0 °F 23.6 °F 23.0 °F 69% 29.95 in 10.0 mi NE 10.4 mph - N/A   Overcast
5:54 PM 30.9 °F 22.8 °F 23.0 °F 72% 29.95 in 10.0 mi NNE 9.2 mph - N/A   Overcast
6:54 PM 30.9 °F 22.2 °F 23.0 °F 72% 29.95 in 10.0 mi NE 10.4 mph 18.4 mph N/A   Overcast
7:54 PM 30.0 °F 20.5 °F 23.0 °F 75% 29.94 in 10.0 mi NE 11.5 mph - N/A   Overcast
8:54 PM 30.0 °F 22.4 °F 21.9 °F 72% 29.92 in 10.0 mi NE 8.1 mph - N/A   Overcast
9:54 PM 30.0 °F 21.7 °F 21.9 °F 72% 29.90 in 10.0 mi NNE 9.2 mph 16.1 mph N/A   Overcast
10:18 PM 28.4 °F 19.1 °F 21.2 °F 74% 29.84 in 10.0 mi NNE 10.4 mph - N/A   Mostly Cloudy
10:54 PM 28.9 °F 19.2 °F 21.9 °F 75% 29.88 in 10.0 mi NNE 11.5 mph - N/A   Mostly Cloudy
11:54 PM 28.0 °F 17.0 °F 21.9 °F 78% 29.86 in 10.0 mi North 13.8 mph 20.7 mph N/A   Clear